Theta_e
281 281 279 277 278 280 279 277 278 280 281 281 280 280 281 282 281 280 281 281 279 278 278 278 278 278 280 286 290 291 293 293 293 294 294 295 295 295 295 296 296 296 296 296 296 297 297 297 297 297 298 298 298 299 299 299 300 300 301 301 301 301 302 302 302 302 302 303 303 303 303 302 302 302 302 302 302 302 302 302 302 302 302 303 303 304
280 280 279 277 278 280 280 277 276 278 281 280 280 280 280 279 279 279 279 279 279 278 278 278 278 277 277 282 287 291 292 292 293 293 294 294 295 295 295 295 295 295 296 296 296 296 296 296 297 297 297 297 298 298 298 298 299 299 299 300 300 300 300 301 301 301 301 301 301 301 301 301 301 301 301 301 302 302 302 302 302 302 302 302 303 304
279 280 280 278 278 279 280 278 277 276 278 278 278 278 277 278 279 280 279 279 279 278 278 277 278 278 277 280 286 290 291 292 293 293 294 294 294 294 294 295 295 295 295 295 296 296 296 296 296 296 297 297 297 297 297 298 298 298 298 298 298 299 299 299 299 300 300 300 300 300 300 300 300 300 300 301 301 301 301 301 301 302 302 302 303 303
278 280 281 279 279 279 279 278 277 276 277 277 277 276 275 277 278 279 279 277 277 277 277 276 276 277 277 279 283 288 291 292 292 293 293 293 294 294 294 294 294 294 295 295 295 295 295 296 296 296 296 296 296 296 297 297 297 297 297 297 297 297 297 298 298 298 298 299 299 299 299 299 299 299 300 300 300 300 300 301 301 301 302 302 303 303
278 279 280 280 280 280 278 277 277 278 279 278 276 275 275 276 277 278 277 276 276 276 277 276 276 276 278 278 282 287 290 291 292 292 292 292 293 293 293 293 294 294 294 294 294 295 295 295 295 295 295 295 296 296 296 296 296 296 296 296 296 296 296 297 297 297 297 297 297 297 298 298 298 298 299 299 299 300 300 300 300 301 301 302 302 303
278 279 279 280 280 280 280 278 279 279 278 277 276 275 276 276 276 276 277 277 277 277 278 277 277 276 277 278 282 287 290 290 291 291 291 291 291 292 292 292 293 293 293 294 294 294 294 294 294 294 295 295 295 295 295 295 295 295 295 295 295 295 296 296 296 296 296 296 296 297 297 297 297 297 298 298 298 299 299 300 300 300 300 301 302 302
278 278 278 278 279 279 279 278 278 279 278 279 278 278 277 277 276 276 275 276 276 277 277 278 277 276 276 278 283 286 288 289 289 290 290 290 291 291 291 292 292 292 293 293 293 293 293 293 294 294 294 294 294 294 295 295 295 295 295 295 295 295 295 295 295 295 295 296 296 296 296 296 296 296 297 297 297 298 298 299 299 300 300 300 301 301
279 279 278 278 279 279 279 278 278 277 277 278 279 279 279 279 278 276 274 274 274 275 277 278 278 278 277 278 280 283 284 285 285 286 287 288 289 290 290 291 291 292 292 292 292 293 293 293 293 293 293 293 294 294 294 294 294 294 294 294 294 294 294 294 294 294 295 295 295 295 295 295 295 296 296 296 296 297 297 298 299 299 299 300 300 300
279 279 278 277 277 279 280 279 277 276 275 277 278 279 279 278 278 277 276 276 275 276 277 278 279 279 278 278 279 281 283 284 284 284 284 285 285 286 289 290 291 291 291 292 292 292 292 292 292 293 293 293 293 293 293 293 293 293 293 293 293 293 293 293 293 294 294 294 294 294 295 295 295 295 295 295 296 296 296 297 298 298 299 299 299 300
277 278 278 277 277 278 279 279 278 276 274 275 276 277 278 277 277 277 277 278 278 277 277 278 279 280 280 279 279 280 283 285 286 287 287 286 286 287 288 289 289 290 290 291 291 291 291 291 291 291 291 292 292 292 292 292 292 292 292 292 292 292 292 292 293 293 293 293 294 294 294 294 295 295 295 295 295 296 296 296 297 297 298 298 299 299
278 278 278 278 278 278 278 278 277 276 274 275 276 276 277 277 277 277 278 278 279 278 278 278 279 280 280 280 280 281 282 282 283 284 286 287 287 288 288 288 288 289 289 290 290 290 290 290 290 290 290 291 291 291 291 291 291 291 291 291 291 291 291 292 292 292 293 293 294 294 294 294 295 295 295 295 295 295 296 296 296 296 297 297 298 298
279 279 279 279 279 279 278 278 277 277 276 278 278 278 278 276 276 276 278 278 279 279 279 279 279 279 280 280 281 281 281 280 279 280 280 282 283 284 285 285 286 287 287 288 288 289 289 289 289 289 289 289 290 290 290 290 290 290 290 290 291 291 291 292 292 292 293 293 293 294 294 294 294 294 295 295 295 295 295 295 295 295 296 296 297 298
279 279 278 278 279 279 278 278 278 278 278 279 279 279 279 277 276 276 276 277 278 279 279 279 279 279 280 280 280 280 279 278 278 278 279 279 280 281 281 281 282 283 284 284 284 285 287 288 288 288 288 288 288 289 289 289 289 289 290 290 290 291 291 291 292 292 293 293 293 293 293 293 294 294 294 294 294 294 294 295 295 295 295 296 296 297
279 278 278 279 279 278 277 278 278 278 278 278 278 278 278 277 276 276 276 277 277 278 279 279 279 280 280 279 279 278 277 277 278 278 279 280 280 280 280 281 281 282 282 281 281 282 285 286 286 286 287 287 287 287 288 288 288 289 289 290 290 291 291 292 292 292 292 292 292 293 293 293 293 293 294 294 294 294 294 294 294 294 295 295 296 296
278 278 279 279 278 278 277 277 277 278 278 277 277 277 277 276 276 276 277 277 278 278 279 279 279 279 279 278 277 276 276 277 278 279 280 281 281 280 279 280 281 281 281 281 281 282 284 284 283 283 284 284 285 286 287 287 288 289 290 290 290 291 291 291 292 292 292 292 292 292 292 293 293 293 293 293 294 294 294 294 294 294 295 295 295 295
278 278 278 278 278 278 277 277 277 278 278 277 277 276 277 277 276 276 277 277 278 279 279 279 279 279 279 278 277 276 276 277 278 279 281 282 282 281 279 279 280 281 281 281 281 281 281 281 281 281 282 284 285 287 287 288 289 290 290 290 291 291 291 291 291 292 292 292 292 292 292 292 293 293 293 293 293 293 293 294 294 294 294 294 294 295
278 279 279 278 278 278 277 277 277 277 277 277 276 276 277 277 277 277 279 280 280 280 280 279 278 278 278 279 279 278 277 277 278 279 281 282 282 282 279 279 280 281 281 281 281 281 280 281 281 281 282 284 286 287 288 288 289 290 290 290 290 291 291 291 291 292 292 292 292 292 292 292 292 293 293 293 293 293 293 293 293 293 294 294 294 294
278 278 278 278 278 278 277 277 276 276 276 276 276 276 276 276 277 279 280 281 281 280 280 279 278 278 278 278 278 277 276 278 280 282 282 282 282 282 280 279 280 280 280 280 280 280 280 280 280 281 283 286 287 288 288 289 289 290 290 290 290 291 291 291 291 292 292 292 292 292 292 292 292 292 292 293 293 293 293 293 293 293 293 293 293 294
279 279 279 279 279 279 278 277 277 277 277 277 277 277 277 278 280 281 281 281 281 281 280 280 279 279 279 279 280 279 278 280 282 282 282 282 282 282 280 280 280 280 279 280 280 280 280 280 282 284 286 287 288 288 288 289 289 290 290 290 291 291 291 291 291 292 292 292 292 292 292 292 292 292 292 292 293 293 293 293 293 293 293 293 293 293
280 280 280 280 280 280 279 280 280 280 280 281 281 280 281 281 281 282 282 282 281 281 281 280 280 280 280 281 281 281 282 283 283 283 282 281 281 281 279 279 279 279 279 279 279 279 279 279 280 282 285 286 287 288 288 289 289 290 290 290 291 291 291 291 291 292 292 292 292 292 292 292 292 292 292 292 292 293 293 293 293 293 293 293 293 293
283 283 283 282 282 282 282 282 282 283 284 284 283 282 282 282 282 282 282 282 281 281 281 281 281 281 282 282 283 283 283 284 283 282 281 281 280 280 278 277 277 277 278 279 279 279 279 279 279 281 283 286 287 288 288 289 289 290 290 290 291 291 291 291 291 291 291 292 292 292 292 292 292 292 292 292 292 292 293 293 293 293 293 293 293 293
284 284 283 283 283 284 284 283 283 285 286 285 283 282 282 282 282 281 281 281 282 282 282 282 282 283 284 284 284 284 284 283 283 282 281 280 279 279 278 277 276 277 278 279 279 279 278 279 279 281 284 286 288 288 289 289 289 290 290 290 290 291 291 291 291 291 291 291 292 292 292 292 292 292 292 292 292 292 292 292 292 292 293 293 293 293
284 283 283 284 284 284 284 284 284 285 286 285 284 283 283 282 282 282 282 282 282 282 283 283 284 285 285 285 284 283 282 282 282 281 280 278 278 278 278 277 277 278 279 280 280 280 280 280 281 282 284 287 288 288 289 289 289 290 290 290 290 290 290 291 291 291 291 291 291 291 292 292 292 292 292 292 292 292 292 292 292 292 292 292 292 292
283 282 283 283 283 283 283 283 284 284 284 284 284 284 284 284 284 284 284 284 284 284 284 284 284 284 283 283 281 280 279 279 279 279 278 277 278 278 278 278 278 279 280 280 280 280 281 281 281 282 283 286 287 288 288 289 289 289 289 290 290 290 290 290 290 291 291 291 291 291 291 291 292 292 292 292 292 292 292 292 292 292 292 292 292 292
283 283 283 284 285 285 286 286 286 286 285 284 284 284 284 285 286 286 286 286 285 285 284 283 281 280 280 280 279 278 277 275 276 277 276 277 277 278 278 278 278 278 279 280 280 280 281 281 282 282 282 284 286 288 288 289 289 289 289 289 290 290 290 290 290 290 291 291 291 291 291 291 291 291 291 292 292 292 292 292 292 292 292 292 292 292
287 287 287 288 288 289 290 291 291 291 290 288 287 286 286 286 286 286 285 284 284 283 282 280 279 279 278 277 277 277 277 275 275 276 276 277 277 278 277 277 277 278 279 280 281 281 281 281 282 282 281 282 285 287 288 288 288 289 289 289 289 290 290 290 290 290 290 290 291 291 291 291 291 291 291 291 291 292 292 292 292 292 292 292 292 291
289 289 289 290 290 290 290 290 291 291 291 290 290 289 288 286 285 283 282 282 282 281 280 279 278 278 278 277 276 277 277 277 276 275 276 277 277 277 277 277 278 279 280 280 281 281 282 282 282 282 282 281 282 285 287 288 288 288 289 289 289 289 290 290 290 290 290 290 290 290 290 291 291 291 291 291 291 291 291 291 291 291 291 291 291 290
289 289 288 288 289 289 289 289 289 289 289 289 290 289 288 286 283 282 281 280 280 280 279 278 278 278 278 276 276 277 278 279 278 276 276 277 277 277 277 278 279 280 280 280 281 281 282 282 282 281 281 281 281 283 285 287 288 288 288 288 289 289 289 289 289 289 290 290 290 290 290 290 291 291 291 291 291 291 291 291 291 291 291 290 289 288
286 287 287 288 288 288 288 287 287 288 288 288 289 288 288 284 282 280 279 278 278 278 278 278 278 278 278 278 278 278 278 278 278 277 277 276 276 278 278 280 280 281 280 280 280 280 280 281 280 280 280 282 282 282 283 285 286 287 287 288 288 288 288 289 289 289 289 289 290 290 290 290 290 290 290 290 291 291 291 291 291 290 290 289 288 288
282 282 282 284 284 284 284 283 283 285 287 287 288 287 286 282 280 278 277 277 277 277 276 277 278 278 278 278 278 278 277 276 276 276 276 276 277 279 280 280 280 280 280 279 278 278 278 280 280 280 280 282 283 282 282 283 284 284 284 286 286 287 288 288 288 289 289 289 289 289 290 290 290 290 290 290 290 290 290 291 290 289 288 288 287 287
278 279 278 279 278 278 279 279 280 281 283 284 285 285 284 280 278 276 276 276 275 275 274 276 278 278 278 278 277 276 276 275 276 277 278 278 278 279 280 279 279 280 280 279 277 276 277 278 280 281 282 282 283 283 283 283 283 283 282 283 284 285 287 287 288 288 288 289 289 289 289 289 289 290 290 290 290 290 290 290 290 289 288 287 286 286
279 280 280 278 277 276 276 277 277 276 277 278 279 280 281 280 278 276 275 275 275 275 275 277 278 278 279 278 277 276 277 277 279 281 282 280 279 280 280 279 279 279 280 280 278 277 276 277 279 281 281 282 282 282 283 283 283 282 282 282 283 284 286 287 287 287 287 288 288 288 289 289 289 289 289 289 289 290 290 290 290 289 287 286 286 285
282 282 281 281 279 278 278 277 275 275 275 275 275 276 278 278 279 279 277 277 277 277 277 278 278 278 278 278 278 278 278 279 281 283 283 281 280 279 280 279 279 279 280 280 279 279 277 277 278 279 280 281 282 282 283 283 283 283 282 282 282 282 284 285 285 286 286 286 287 287 288 288 288 288 289 289 289 289 289 289 289 289 288 287 286 286
283 283 282 281 280 279 278 275 273 273 274 274 275 276 276 277 278 279 279 279 280 280 279 279 279 278 278 278 277 278 278 278 281 283 283 280 279 279 279 279 279 279 279 279 279 279 279 278 279 279 279 281 281 282 282 283 283 283 281 281 281 282 283 284 284 284 284 285 285 285 286 286 287 287 288 288 288 289 289 289 289 289 289 288 287 286
282 282 281 280 278 277 275 273 272 273 274 275 275 276 277 276 276 276 277 279 280 281 281 280 280 279 278 278 277 277 278 277 279 282 283 281 280 279 279 279 279 279 278 278 278 278 278 278 279 279 279 279 280 281 282 282 282 282 281 282 282 282 282 283 283 283 284 284 283 283 283 284 284 285 286 287 288 288 289 289 289 289 289 289 288 287
280 279 279 278 276 275 274 274 274 274 274 274 274 275 275 276 275 275 276 277 278 280 280 281 280 280 280 279 278 278 278 278 279 281 282 281 280 279 279 279 279 279 279 278 278 278 278 278 279 279 279 279 279 280 281 282 282 282 282 282 283 283 283 283 283 283 283 282 283 283 283 283 283 284 285 286 287 288 288 289 289 289 289 289 289 288
279 278 277 275 274 273 274 273 273 274 274 273 274 274 275 275 275 275 275 275 276 277 279 280 281 281 282 281 280 279 279 279 280 281 281 281 280 280 279 279 280 280 279 279 278 278 278 278 278 279 279 278 278 279 280 281 282 282 281 282 283 282 282 283 283 283 282 282 282 282 283 283 283 284 285 286 287 287 288 288 288 288 288 288 288 288
278 278 277 274 272 272 273 273 274 275 275 275 275 275 275 275 274 274 275 275 274 275 276 278 279 280 281 282 282 281 281 280 280 280 280 280 280 280 279 279 280 280 280 280 279 279 278 278 277 277 277 278 279 280 280 281 281 281 281 282 282 282 282 282 282 282 282 282 282 283 283 283 283 283 284 285 285 285 285 285 286 287 287 287 288 288
277 277 276 275 274 274 274 275 275 276 276 276 276 276 276 275 275 275 275 275 275 275 276 277 278 278 278 279 280 281 282 281 280 280 280 279 279 279 280 279 280 280 281 281 280 280 279 278 278 277 277 278 279 280 280 280 280 280 280 281 281 281 281 282 282 282 282 281 282 282 282 282 282 283 283 283 283 283 283 283 284 285 285 285 285 286
279 279 278 278 278 276 275 277 277 277 276 277 278 278 277 277 276 276 275 276 277 277 276 277 278 279 279 280 281 281 282 281 281 281 279 278 277 278 280 280 280 280 281 281 281 280 280 279 279 279 279 279 279 279 279 280 280 280 280 280 279 280 281 281 281 281 281 281 281 281 281 282 282 282 283 283 283 283 282 282 283 283 284 283 282 282
279 279 278 278 278 278 278 279 278 278 277 277 277 276 277 277 276 276 276 277 278 278 278 278 279 279 279 279 279 279 280 280 280 280 278 277 277 277 279 280 280 280 280 281 281 281 280 280 280 280 280 279 279 279 279 279 280 280 280 279 279 279 281 281 282 281 281 281 281 281 282 282 282 283 283 283 283 283 283 283 283 283 283 283 282 281
280 279 278 278 278 278 278 278 278 278 279 277 276 276 277 277 277 277 277 277 277 277 277 278 278 278 278 278 277 277 277 277 278 279 279 278 277 277 279 280 281 281 281 281 281 281 281 281 281 280 280 279 279 278 278 278 279 280 280 279 279 280 281 281 280 279 280 280 281 281 282 282 282 282 282 282 282 283 283 283 283 283 283 283 282 282
278 278 277 278 278 278 279 279 279 279 279 278 277 277 277 277 277 277 277 276 276 277 278 278 278 278 278 277 277 275 274 274 275 277 279 278 277 278 279 280 281 281 282 281 281 281 281 282 281 280 280 280 279 278 277 278 278 279 279 280 279 279 278 279 279 280 280 281 281 281 282 281 282 282 282 282 282 283 283 283 284 284 284 283 282 282
277 277 278 278 279 279 280 279 279 278 278 277 277 277 276 276 277 278 278 277 277 277 277 277 278 278 278 278 277 276 276 275 274 275 278 280 281 281 281 281 282 282 282 282 281 281 281 281 280 280 280 280 279 278 278 278 278 278 278 279 279 279 278 278 279 280 281 281 281 281 281 281 282 282 282 282 282 282 282 282 282 282 283 283 282 282
277 278 279 279 280 280 279 279 279 278 278 277 277 277 277 277 278 278 278 277 277 277 277 277 278 278 277 277 277 278 278 278 278 278 279 282 284 285 284 283 283 283 283 282 282 281 280 280 279 280 280 280 279 278 278 278 278 278 279 279 280 280 279 280 280 280 280 280 280 281 281 282 281 281 281 281 281 281 281 281 281 281 281 282 282 282
277 278 278 279 279 279 279 279 279 278 277 278 278 278 278 276 276 276 277 277 277 277 277 278 278 277 277 277 277 278 278 278 279 280 280 281 282 283 284 284 283 283 283 282 282 282 281 280 280 280 279 279 279 278 278 278 278 278 278 279 279 279 279 280 280 280 280 280 280 281 281 281 281 280 280 280 280 280 281 281 281 281 281 281 281 281
277 277 278 278 278 278 278 279 279 278 278 278 278 278 277 276 276 276 276 277 277 277 278 278 278 277 277 277 277 277 277 278 278 279 280 281 281 281 282 283 283 283 283 282 282 282 282 281 281 280 279 278 277 277 278 278 278 278 278 278 278 278 278 279 279 280 280 280 280 280 281 281 280 279 279 279 279 279 280 280 281 281 281 281 281 281
278 278 278 278 278 277 277 278 278 278 277 277 278 278 278 277 276 276 276 276 277 277 278 278 277 277 277 277 277 278 278 278 278 279 280 280 281 281 281 282 282 283 283 283 283 283 282 282 281 280 279 278 277 277 277 277 277 277 277 278 278 278 278 279 279 280 280 280 280 280 280 280 279 279 278 278 278 278 279 279 280 281 281 281 281 281
278 278 278 278 278 277 277 277 277 277 277 277 277 277 276 278 279 279 278 277 276 276 277 277 277 277 277 277 278 278 278 279 279 279 279 280 280 281 281 281 281 281 281 281 281 282 282 281 281 281 281 280 278 277 276 277 277 277 277 278 278 278 278 278 279 280 280 280 280 280 280 280 279 279 278 278 277 277 278 279 279 280 281 281 282 282
279 279 279 278 278 278 277 277 277 277 277 277 277 277 276 277 278 278 278 277 276 276 276 276 277 277 277 277 277 278 278 278 278 279 279 280 280 280 280 280 281 280 280 280 279 279 279 279 280 281 283 282 281 279 277 277 277 278 278 278 278 278 278 278 279 279 280 280 280 280 280 280 279 279 279 277 277 277 277 278 279 280 281 281 282 282
279 279 279 278 278 278 277 277 277 277 277 277 277 278 278 277 277 278 278 277 276 276 276 276 277 277 277 277 278 278 278 278 278 278 279 279 280 280 280 280 280 279 279 278 277 277 277 276 277 277 279 282 283 282 279 278 277 277 277 277 278 278 278 278 279 279 280 280 279 279 279 279 279 279 278 277 277 277 277 277 278 279 280 281 282 282
Wind_Speed
1 1 2 2 2 2 2 3 2 1 1 1 2 2 2 2 2 2 2 2 1 1 0 0 0 1 3 4 5 6 7 8 9 10 11 11 12 13 13 13 14 14 14 14 14 15 15 15 15 16 16 16 16 17 17 18 18 18 19 19 19 20 20 20 20 20 20 20 21 21 21 20 20 20 20 20 20 20 20 20 20 20 21 21 22 22
1 1 1 2 2 2 1 2 2 1 1 1 1 1 2 2 2 1 1 1 1 1 0 0 1 1 2 3 5 6 7 8 9 10 11 12 13 13 13 14 14 14 14 14 14 14 14 14 15 15 15 15 16 16 16 17 17 18 18 18 19 19 19 19 20 20 20 20 20 20 20 20 20 20 20 20 20 20 20 20 21 21 21 22 22 23
2 2 2 2 2 2 1 2 2 2 1 1 1 1 1 2 1 1 1 1 0 0 1 1 1 1 2 3 4 6 7 8 10 11 12 12 13 13 13 13 13 13 13 13 13 13 13 14 14 14 14 15 15 15 16 16 17 17 18 18 18 19 19 19 19 20 20 20 20 20 20 20 20 20 20 20 20 21 21 21 21 22 22 23 23 23
2 1 1 2 2 2 1 2 2 1 1 1 1 1 1 1 1 1 1 1 1 1 1 1 1 1 2 3 4 6 8 9 10 11 12 13 13 13 13 13 12 12 12 12 13 13 13 13 14 14 14 15 15 16 16 17 17 18 18 18 19 19 19 19 19 19 20 20 20 20 20 20 20 20 20 21 21 21 22 22 22 22 23 23 23 24
1 1 1 1 1 2 2 2 2 1 1 1 1 1 1 1 1 1 2 1 2 2 1 1 1 2 2 2 3 5 8 10 11 12 12 12 12 12 12 12 12 12 12 12 12 13 13 14 14 14 15 15 16 16 17 17 18 18 18 19 19 19 19 19 19 19 20 20 20 20 20 20 20 20 21 21 21 22 22 23 23 23 23 24 24 24
1 1 1 1 1 1 1 1 1 1 2 1 1 1 1 1 1 1 2 2 2 2 2 1 1 2 2 2 4 6 9 10 11 12 12 12 12 12 11 11 11 12 12 12 13 13 14 14 15 15 16 16 17 17 17 18 18 18 19 19 19 19 19 19 19 19 19 19 19 20 20 20 20 20 21 21 22 22 23 23 23 23 24 24 24 24
0 1 1 1 1 0 1 1 2 2 2 2 2 2 1 1 1 1 1 1 2 2 2 2 2 2 2 3 4 5 7 9 10 11 11 11 11 11 11 11 12 12 12 13 13 14 14 15 15 16 16 17 17 17 18 18 18 18 18 18 18 18 18 18 18 19 19 19 19 19 19 20 20 20 20 21 21 22 22 23 23 23 24 24 24 24
1 1 2 1 1 1 1 2 2 2 2 2 2 2 2 2 2 2 1 1 1 1 2 2 2 2 2 2 3 4 5 6 7 7 8 9 9 9 10 11 12 12 13 13 14 15 15 16 16 16 17 17 17 17 18 18 18 18 17 17 17 17 18 18 18 18 18 18 18 19 19 19 19 20 20 20 21 21 22 22 22 23 23 23 24 24
1 1 1 1 1 1 1 1 2 2 1 1 1 1 1 2 2 2 2 2 1 1 1 1 2 2 2 2 2 3 4 5 5 5 5 5 5 6 8 10 11 12 13 14 15 15 16 16 16 17 17 17 17 17 17 17 17 17 17 17 17 17 17 17 17 18 18 18 18 18 19 19 19 20 20 20 20 21 21 21 22 22 23 23 23 23
1 1 1 1 0 0 1 1 1 1 1 1 1 1 1 1 1 2 2 2 2 2 1 1 2 2 3 2 2 2 3 5 6 7 7 6 6 7 8 9 10 11 14 14 15 16 16 16 17 17 17 17 17 17 17 17 17 17 17 17 17 17 17 17 17 18 18 18 18 18 19 19 19 20 20 20 20 20 21 21 21 22 22 23 23 23
1 1 0 1 1 0 0 0 1 1 1 1 1 1 2 1 1 1 2 3 3 2 2 1 1 2 3 3 2 2 2 3 4 6 7 7 8 9 9 10 11 12 14 14 15 15 16 16 17 17 17 17 17 17 17 17 17 17 17 17 17 17 18 18 18 18 18 18 19 19 19 19 20 20 20 20 20 21 21 21 21 22 22 22 23 23
1 1 1 1 1 1 1 1 1 1 2 2 2 1 1 1 1 1 1 2 3 3 3 2 2 2 2 3 3 2 2 2 2 3 3 4 5 5 6 7 8 10 11 12 12 13 15 15 16 16 16 16 17 17 17 16 17 17 18 18 18 18 18 18 18 18 19 19 19 19 20 20 20 20 20 21 21 21 21 21 21 22 22 22 23 23
1 1 1 1 1 1 1 1 2 2 2 1 1 1 1 0 1 1 0 1 2 2 3 3 2 2 2 3 2 2 1 2 2 2 2 2 3 3 3 4 4 5 6 6 7 8 11 13 14 14 15 15 16 17 17 17 17 18 18 18 18 18 18 18 19 19 19 19 19 20 20 20 20 20 21 21 21 21 21 22 22 22 22 22 23 23
1 1 1 2 1 1 1 1 1 1 1 0 1 1 2 1 1 1 0 1 2 2 2 2 3 3 2 2 2 1 0 1 2 2 2 2 2 2 2 3 3 4 4 4 4 5 8 9 10 10 13 14 15 16 16 17 18 18 19 19 19 19 19 19 19 19 19 19 20 20 20 20 20 20 20 21 21 21 21 21 22 22 22 22 22 23
1 1 1 1 1 1 1 1 0 1 1 1 1 1 1 0 1 1 1 1 2 2 2 3 3 3 2 2 1 1 1 0 1 2 3 3 3 2 2 3 3 4 3 4 4 5 7 7 6 7 8 11 12 14 16 17 18 19 19 19 19 19 19 19 19 19 19 19 19 20 20 20 20 20 20 20 20 21 21 21 21 21 21 22 22 22
1 1 1 0 1 1 1 0 0 1 1 1 1 1 0 1 1 1 1 2 2 2 2 3 3 3 2 2 1 1 1 1 1 2 4 5 3 2 2 2 3 4 4 4 4 4 5 5 5 6 7 10 14 16 18 18 19 19 19 19 19 19 19 19 19 19 19 19 19 19 20 20 20 20 20 20 20 20 20 21 21 21 21 21 22 22
1 2 2 1 1 1 1 1 1 1 1 1 1 1 1 2 2 2 2 1 2 2 2 2 3 3 3 2 1 0 1 1 1 3 5 5 4 2 2 2 3 4 5 4 4 4 4 4 5 5 6 11 15 17 19 19 19 20 20 20 20 20 19 19 19 19 19 19 19 19 19 19 20 20 20 20 20 20 20 21 21 21 21 21 22 22
1 1 2 2 1 1 1 1 1 1 1 1 1 1 2 2 2 2 1 1 2 2 2 2 2 2 3 3 2 1 2 1 2 4 5 6 5 3 1 2 3 4 5 5 4 4 4 4 5 6 8 13 17 18 19 20 20 20 20 20 20 20 19 19 19 19 19 19 19 19 19 19 20 20 20 20 20 20 21 21 21 21 22 22 22 22
1 2 2 2 2 2 2 2 2 2 1 1 2 2 2 2 2 2 2 2 2 2 2 2 3 3 3 4 3 2 3 2 3 4 6 6 5 3 2 2 3 4 4 5 4 4 4 5 7 9 13 16 18 19 20 20 20 20 20 20 20 20 20 20 20 20 20 20 19 20 20 20 20 20 20 20 20 21 21 21 22 22 22 22 22 23
2 2 2 2 1 1 1 2 2 2 2 2 2 2 2 2 2 2 2 2 2 2 2 3 3 3 3 4 3 2 2 2 3 4 5 6 5 4 2 2 3 4 4 4 4 3 4 4 6 9 13 15 18 19 20 20 20 20 20 20 20 20 20 20 20 20 20 20 20 20 20 20 20 20 20 21 21 21 22 22 22 22 23 23 23 23
2 2 2 2 2 1 1 2 2 3 3 3 2 2 2 2 2 2 2 2 2 2 2 3 4 4 3 4 4 3 1 2 3 4 4 4 4 4 2 1 2 3 5 5 4 4 4 4 5 6 9 14 17 19 20 20 20 20 20 20 20 20 20 20 20 20 20 20 20 20 20 20 21 21 21 21 22 22 22 22 23 23 23 23 24 24
1 2 2 3 2 2 2 2 3 4 4 3 2 2 2 2 2 2 2 2 2 3 3 3 4 3 3 4 4 3 2 2 3 3 4 4 4 4 2 1 2 3 5 5 4 4 3 4 5 6 10 14 17 19 20 20 20 20 19 19 19 19 19 20 20 20 20 20 20 21 21 21 21 21 22 22 22 22 23 23 23 24 24 24 24 25
2 2 2 3 3 3 2 3 3 4 5 4 4 3 2 2 2 3 2 2 3 3 3 3 3 3 3 4 4 3 2 2 2 2 2 4 4 4 2 1 2 3 5 5 5 5 4 5 5 7 10 15 18 19 20 19 19 19 19 19 19 19 19 19 20 20 20 20 21 21 21 22 22 22 22 23 23 23 23 24 24 24 24 25 25 25
3 3 3 3 3 3 3 3 4 4 4 4 4 4 3 3 3 3 2 2 2 3 3 3 4 4 4 4 4 3 2 1 1 1 1 3 4 4 2 2 3 5 6 5 5 5 6 6 6 6 7 12 16 18 19 19 19 18 18 18 18 19 19 19 20 20 20 21 21 22 22 22 22 23 23 23 23 24 24 24 24 24 25 25 25 25
3 3 3 3 4 4 4 5 5 5 5 4 4 3 3 4 4 3 3 3 2 2 2 4 4 5 4 4 3 3 2 1 2 2 1 2 3 4 2 2 3 4 6 5 5 5 6 6 6 6 6 9 13 16 17 17 17 17 17 18 18 19 19 20 20 20 21 21 22 22 22 23 23 23 23 23 24 24 24 24 24 25 25 25 25 26
3 3 3 4 6 7 8 8 7 6 4 3 3 3 3 3 3 2 2 2 2 2 3 4 5 5 4 3 3 3 2 0 1 2 2 2 3 4 3 2 2 4 6 6 5 5 6 7 7 6 5 6 10 13 15 15 16 16 17 18 18 19 20 20 21 21 21 22 22 22 22 23 23 23 23 23 24 24 24 24 24 25 25 25 25 25
6 7 8 9 9 10 10 9 9 8 7 4 2 2 2 1 1 2 2 2 2 2 3 5 6 6 4 3 3 2 2 1 1 2 2 2 3 4 3 2 2 4 6 6 6 6 8 8 8 7 6 5 6 8 12 13 14 16 17 18 19 20 20 20 21 21 21 22 22 22 23 23 23 23 23 23 24 24 24 24 24 25 25 24 22 20
6 7 8 9 9 10 9 8 8 8 8 8 8 7 4 2 2 3 3 2 2 2 4 5 6 6 5 4 3 3 2 2 2 2 2 1 2 3 3 3 3 4 6 6 6 7 8 8 7 6 6 5 5 5 8 11 13 15 17 18 19 20 20 20 21 21 21 22 22 22 23 23 23 23 23 23 24 24 24 24 24 24 23 20 15 13
4 5 6 7 7 7 6 5 5 6 7 8 9 9 6 3 2 3 3 2 2 2 4 5 5 5 5 4 4 4 3 3 2 1 2 1 1 3 3 3 4 4 5 6 6 6 5 5 4 4 4 4 4 4 5 8 10 12 14 16 18 18 19 20 20 21 21 22 22 22 23 23 23 23 23 23 23 24 24 24 24 22 18 14 12 11
3 3 4 4 4 4 3 3 3 4 6 7 8 8 6 3 2 3 3 2 2 3 4 4 5 5 4 5 4 4 3 2 1 1 2 0 2 3 3 3 4 4 4 5 5 5 5 3 3 3 3 4 4 4 4 6 7 8 9 12 13 15 17 18 19 20 21 22 22 22 23 23 23 23 23 23 23 23 24 24 22 18 12 11 10 10
2 2 3 3 2 2 1 1 2 3 4 6 6 6 5 2 2 3 3 2 3 3 3 4 4 4 4 4 4 3 3 2 2 2 2 1 2 3 3 4 4 3 2 3 4 5 6 4 3 2 3 5 6 6 6 6 6 5 5 7 8 10 14 16 18 19 20 20 21 22 22 23 23 23 23 23 23 23 23 24 21 17 11 10 10 10
3 3 3 3 2 2 1 1 1 2 2 3 4 4 4 3 2 3 3 3 3 3 3 3 3 4 4 4 4 4 3 2 2 2 1 2 3 3 3 4 4 4 3 2 3 4 5 5 5 4 5 6 6 6 7 6 6 5 5 5 6 7 12 14 15 16 16 18 19 20 21 22 22 22 22 23 23 23 23 23 21 17 12 10 10 10
4 4 3 3 2 2 1 1 1 2 2 3 3 3 3 3 3 3 3 3 3 3 3 3 3 4 4 5 5 5 4 3 3 4 4 3 3 3 3 4 4 4 4 3 3 4 5 6 6 6 6 6 6 6 6 6 6 5 5 5 5 6 10 11 11 12 12 14 15 16 18 19 20 21 21 22 22 22 22 22 21 19 15 11 10 11
4 4 3 3 2 2 1 1 2 2 3 3 3 3 3 2 2 3 3 3 3 3 3 3 3 4 4 5 5 5 5 4 4 4 4 3 3 3 4 4 4 5 4 4 4 4 5 6 6 7 7 7 6 6 6 6 6 5 4 5 5 6 7 8 9 9 10 11 11 11 13 14 15 17 18 19 20 20 21 22 22 22 20 16 13 12
3 4 3 3 2 2 2 2 2 3 3 3 3 3 3 3 2 2 3 3 3 3 3 3 3 4 4 5 5 6 6 4 3 3 4 3 3 4 4 4 4 4 5 5 4 4 5 6 7 8 7 7 7 6 5 5 5 5 5 5 6 6 7 7 8 9 10 10 9 9 9 9 10 11 13 15 17 19 21 22 23 23 23 21 18 15
3 3 2 2 1 2 2 2 3 3 3 3 3 3 3 3 3 3 3 3 3 3 4 4 4 4 4 4 5 6 6 5 4 5 5 4 4 4 4 4 4 4 5 5 5 5 5 7 8 8 9 8 7 6 5 5 5 5 6 6 7 7 7 7 8 8 8 9 9 9 8 8 9 9 11 15 18 20 22 23 23 24 24 24 23 20
1 2 1 1 1 2 2 2 2 3 3 3 3 3 3 3 3 3 3 3 3 4 4 4 5 5 6 5 6 6 6 5 5 6 6 5 4 4 5 5 5 5 5 6 6 6 6 7 8 8 8 8 7 7 6 6 6 6 6 7 7 8 8 8 8 8 8 9 10 10 9 9 9 10 11 15 17 19 20 21 21 22 23 23 24 24
1 2 1 1 1 2 2 2 3 3 3 3 3 4 4 3 4 4 3 4 4 4 4 4 4 5 8 8 8 7 7 7 7 7 8 6 5 5 6 6 6 6 5 6 6 6 7 7 8 8 7 7 8 8 9 8 8 8 8 8 8 8 8 7 7 7 7 9 10 11 11 10 10 10 11 12 12 12 13 13 14 16 19 20 21 23
2 2 2 2 2 2 3 3 4 4 4 4 4 3 3 3 3 3 3 3 4 4 5 4 4 5 6 7 8 9 9 8 8 9 8 7 6 5 6 6 6 6 6 6 6 7 7 7 7 7 8 8 9 9 8 8 9 9 10 9 8 8 7 7 7 7 7 8 10 11 11 10 9 9 10 10 9 10 10 10 11 12 13 13 15 18
3 3 3 3 3 3 3 4 4 4 3 3 3 2 2 2 2 2 3 3 4 4 5 5 5 5 5 6 7 8 8 8 8 8 7 6 5 5 6 6 6 7 6 6 6 6 7 7 8 8 9 8 9 9 8 8 9 10 11 10 8 7 7 7 7 7 7 7 8 9 10 9 9 10 10 10 10 10 10 9 9 10 11 10 10 12
3 3 3 3 3 3 4 4 4 3 3 2 1 1 1 1 1 2 2 2 3 3 3 4 4 4 4 4 5 6 7 7 8 8 6 7 7 6 6 6 6 6 7 7 7 7 7 8 8 9 8 9 9 10 11 10 11 12 12 11 10 10 10 9 9 8 7 7 8 9 10 11 11 11 11 11 10 10 10 10 11 11 11 10 10 10
4 4 3 3 3 3 3 3 3 3 2 2 1 1 1 1 1 1 2 2 2 2 2 2 3 3 4 4 4 5 6 6 7 8 8 8 8 7 6 6 6 6 6 7 7 7 7 8 8 8 8 8 9 10 10 11 11 11 11 11 11 12 11 10 7 5 6 7 8 9 11 11 11 11 11 11 11 10 10 11 12 13 13 11 10 10
3 3 3 3 3 2 2 2 2 2 2 1 1 2 2 1 1 1 2 2 3 3 3 3 3 4 4 4 4 4 4 5 6 6 7 7 7 7 7 7 7 6 6 6 7 7 7 7 8 8 8 8 9 10 11 11 11 10 10 10 10 10 8 7 6 6 7 8 9 10 10 10 10 11 11 11 11 10 10 12 14 15 14 13 12 11
3 3 2 2 2 2 2 2 2 2 1 1 2 2 2 2 2 2 3 3 3 3 3 2 3 3 5 5 4 3 3 4 4 5 7 8 8 8 7 8 8 7 6 6 6 6 6 7 8 8 8 8 9 10 11 11 11 10 10 10 10 9 9 9 9 10 10 10 10 10 10 10 11 11 11 11 11 11 11 11 11 12 13 12 12 12
3 2 2 2 2 2 2 2 2 2 1 2 2 2 2 2 2 2 2 3 3 3 2 2 3 3 4 4 4 3 3 3 3 4 5 7 9 9 8 7 6 6 6 6 5 6 6 7 8 8 8 8 9 10 11 11 11 11 11 10 10 10 10 10 10 10 11 11 11 10 10 10 10 11 12 11 11 11 11 11 12 12 12 12 12 12
2 2 2 2 2 2 3 2 2 2 2 2 2 2 2 2 2 2 3 3 3 3 3 3 3 3 4 4 4 4 4 4 4 3 3 4 5 6 6 6 6 5 5 5 6 6 6 7 8 9 9 9 10 10 10 10 11 11 11 10 10 10 10 10 10 10 10 11 11 11 11 11 11 11 12 12 12 12 12 11 12 12 13 12 12 12
3 3 3 2 2 2 2 2 2 2 2 2 2 2 2 2 2 2 2 2 3 3 3 3 3 3 4 4 4 4 5 5 5 4 4 4 4 4 4 5 5 6 6 6 6 7 7 8 8 8 9 10 10 10 10 9 10 10 10 10 10 10 10 10 10 10 10 10 11 11 11 10 11 11 12 13 13 13 12 12 12 12 12 12 12 13
3 3 3 3 2 2 2 2 2 2 2 2 2 2 2 2 3 3 3 2 2 2 3 3 3 4 4 4 4 5 6 6 6 5 5 4 4 4 4 4 5 5 6 6 7 8 8 8 9 9 9 9 10 11 11 10 9 9 9 9 10 10 11 11 10 10 10 10 11 10 9 9 10 12 13 13 13 13 13 12 12 12 11 12 12 13
3 3 3 3 2 2 2 2 2 2 2 2 2 2 2 3 4 4 3 2 2 2 2 3 4 4 5 5 5 5 6 6 5 5 5 5 4 4 4 4 4 5 5 5 5 6 7 8 8 9 9 9 9 10 10 10 9 8 8 8 9 10 11 11 10 10 10 10 11 10 9 9 10 11 12 13 14 15 15 14 13 12 11 11 11 12
3 3 3 3 3 3 3 2 2 2 3 3 3 3 2 2 3 3 2 2 2 2 2 3 4 5 5 5 5 5 5 5 5 5 5 5 5 5 5 5 5 5 5 4 4 4 5 5 6 8 9 10 10 9 9 9 9 8 8 8 8 8 9 10 11 10 10 11 11 11 11 10 10 10 10 12 14 16 16 15 14 13 11 10 11 12
3 3 3 3 3 3 3 3 3 3 3 3 3 3 3 2 2 2 2 2 2 2 2 3 4 5 6 6 6 6 5 5 5 5 5 5 5 6 6 6 6 6 6 5 5 5 5 5 5 5 7 9 10 9 7 7 7 8 9 8 7 7 8 10 11 11 11 11 11 11 11 11 11 10 10 11 13 15 16 16 15 14 12 11 11 13
Wind_Direction
19 1 353 360 22 50 28 9 24 81 119 55 25 14 9 25 32 32 29 54 71 84 78 320 293 297 302 303 305 306 306 306 305 305 305 304 304 303 302 302 301 299 298 297 295 294 293 292 291 291 291 291 290 290 290 290 290 289 289 288 288 288 288 287 287 287 287 287 287 287 287 288 288 288 289 288 287 286 285 284 283 282 281 280 280 279
360 1 5 11 32 57 35 0 9 40 107 84 35 9 8 14 15 15 22 59 92 120 173 234 259 279 285 290 298 304 306 307 307 307 307 307 306 305 304 303 301 300 299 297 296 295 294 293 293 292 292 291 291 291 291 291 291 290 290 290 289 289 289 289 288 288 288 288 288 288 288 288 288 288 287 286 285 284 283 282 281 280 279 278 278 277
351 357 4 11 29 47 43 0 358 6 56 88 59 27 25 24 13 2 4 13 9 220 211 218 236 257 268 274 291 301 306 309 309 309 309 309 308 306 305 303 302 301 300 299 298 297 296 296 295 295 295 294 294 294 294 293 293 292 292 292 291 291 290 290 289 289 289 289 289 288 288 287 287 286 285 283 282 281 280 280 279 278 278 277 277 276
346 356 356 1 18 31 22 352 338 337 351 36 45 42 46 43 5 326 324 324 315 298 261 226 222 235 253 264 281 295 306 310 311 311 311 310 309 308 306 305 304 303 303 302 302 301 300 300 300 299 298 298 297 297 296 295 294 294 293 293 292 291 290 290 289 289 288 288 288 287 287 286 284 283 282 281 281 280 279 279 278 277 277 277 276 276
352 356 346 355 16 25 4 340 328 329 344 15 27 30 34 28 327 309 316 322 318 307 288 249 226 225 238 252 277 294 306 311 312 312 313 312 310 309 308 307 307 307 307 306 305 305 304 303 303 302 301 300 299 298 296 295 295 294 293 292 291 290 289 289 288 288 287 287 286 285 285 284 283 282 281 280 280 279 278 278 277 277 277 276 276 276
355 353 340 2 25 27 355 346 342 347 360 8 12 13 14 353 333 330 333 335 326 315 301 279 249 233 234 245 275 295 305 310 311 312 312 311 311 310 310 310 310 310 310 309 308 307 306 305 304 303 302 300 299 297 296 295 294 293 292 291 290 290 289 288 287 287 286 286 285 284 284 283 282 281 280 280 279 278 278 277 277 277 276 276 276 275
5 345 350 8 24 36 28 17 9 5 8 5 2 360 356 352 352 348 336 329 324 316 308 297 281 261 251 257 276 293 304 307 308 308 308 309 310 310 311 312 312 312 311 310 309 307 306 305 304 303 302 301 299 298 297 296 294 294 293 292 291 290 289 289 288 287 287 286 285 284 284 283 282 281 280 280 279 278 278 277 277 276 276 276 276 275
61 4 4 10 14 27 45 38 30 22 18 17 9 358 349 348 346 340 325 322 323 324 321 316 311 302 286 276 281 289 296 299 299 298 301 301 304 307 310 311 311 311 310 309 308 307 306 305 305 304 303 302 301 299 298 297 296 295 294 293 292 292 291 290 289 289 288 287 286 285 284 283 282 281 280 280 279 278 278 277 277 277 276 276 276 275
82 50 10 6 15 41 53 31 26 27 35 49 48 28 354 341 338 335 334 333 337 344 348 337 324 311 296 281 276 277 278 282 281 282 286 286 293 301 307 309 309 309 308 307 306 306 305 305 305 305 304 303 301 300 299 298 297 296 295 295 294 293 292 291 290 289 288 287 286 285 284 283 282 281 280 279 279 278 278 278 277 277 277 277 276 276
60 63 23 333 332 86 97 36 354 353 37 92 108 111 106 18 343 339 337 329 328 335 351 337 315 304 298 286 271 266 272 282 286 289 293 295 298 302 305 307 307 306 305 305 304 304 305 305 305 304 303 302 301 300 299 298 298 297 296 295 294 293 292 291 289 288 287 286 285 284 283 283 282 281 280 280 279 279 279 279 278 278 278 278 278 278
22 10 2 317 314 340 88 153 296 314 9 79 89 92 100 100 71 357 333 319 318 323 326 309 293 291 299 298 289 277 276 284 290 294 299 302 303 304 305 305 304 303 302 302 303 303 303 303 303 303 302 301 300 299 298 298 297 296 295 294 293 292 291 290 289 288 287 286 286 285 284 283 283 282 282 282 281 281 281 280 280 280 279 279 279 279
7 342 337 327 338 352 10 355 342 351 15 38 35 20 12 67 98 102 310 300 305 310 308 294 276 265 272 285 289 290 290 287 288 293 299 301 301 302 302 301 300 300 299 300 300 300 300 300 300 300 299 299 298 298 297 296 295 294 293 292 291 290 290 289 289 288 288 288 287 286 286 285 285 284 284 283 283 282 282 281 281 281 280 280 280 279
1 339 334 348 359 4 8 9 9 12 18 33 21 291 285 288 108 115 196 269 281 288 292 292 284 269 253 253 263 277 293 290 288 289 293 293 292 292 293 293 293 292 293 295 294 294 295 296 296 296 296 296 295 295 295 293 292 291 291 290 289 289 289 289 289 289 289 289 288 288 287 287 286 285 285 284 284 283 282 282 281 281 280 280 279 279
11 351 356 358 356 352 3 26 28 11 333 262 219 220 226 178 118 116 201 261 265 267 275 286 289 286 272 258 248 238 251 298 303 300 291 282 277 275 278 282 283 285 285 286 284 283 286 290 291 293 293 293 293 292 291 290 289 289 288 288 289 289 290 290 290 290 290 290 289 288 288 287 286 286 285 284 284 283 282 282 281 281 280 279 279 279
113 70 36 356 333 326 334 14 29 246 253 241 231 222 201 124 123 146 205 257 266 273 285 291 292 289 280 272 252 178 129 358 317 305 296 288 275 259 251 270 277 279 279 280 279 278 280 283 284 285 285 285 284 284 285 286 286 287 288 289 290 290 291 291 291 291 290 290 289 288 287 287 286 285 285 284 283 283 282 282 281 280 280 279 279 278
143 133 127 237 294 301 306 304 254 249 256 255 246 227 206 209 191 185 200 246 272 290 306 312 311 305 289 279 255 149 122 105 300 295 298 295 286 259 218 259 276 280 277 276 276 277 277 275 273 273 275 278 280 282 284 285 286 288 289 290 290 291 291 291 290 290 290 289 289 288 287 287 286 286 285 284 284 283 282 282 281 280 280 279 279 278
156 152 152 168 224 259 256 236 234 243 256 263 254 236 221 214 204 199 210 259 286 299 305 314 316 314 308 306 298 177 134 147 261 287 295 295 292 276 215 248 275 282 282 278 276 275 276 273 272 272 273 277 280 283 285 287 288 289 290 290 291 291 290 290 290 290 290 290 289 289 288 288 287 287 286 285 285 284 283 282 282 281 280 280 279 278
170 164 156 170 192 212 207 204 216 230 241 248 248 245 241 227 214 209 226 259 281 291 296 297 293 293 300 301 291 247 162 196 270 291 295 292 291 286 243 246 265 276 280 278 275 272 270 270 269 271 275 281 283 286 288 289 290 290 290 290 290 291 291 291 291 291 291 291 291 290 290 289 288 288 287 286 286 285 284 283 282 281 281 280 279 278
187 182 170 178 186 193 191 192 193 195 200 212 215 221 235 233 228 225 233 244 255 266 280 285 281 277 278 282 276 246 184 218 269 292 294 291 291 291 282 265 268 273 276 277 275 272 268 267 270 273 277 282 285 287 288 289 289 289 290 290 291 291 292 292 292 293 292 292 292 292 291 290 290 289 288 287 286 285 284 284 283 282 281 280 280 279
190 192 183 179 176 180 197 203 200 196 197 200 202 211 230 233 235 236 238 241 246 252 260 270 272 272 272 276 275 261 208 248 282 291 290 289 289 289 285 272 274 278 280 279 276 271 267 265 270 275 279 282 284 286 287 288 289 289 290 291 292 292 293 293 293 293 293 293 293 292 292 291 290 289 288 288 287 286 285 284 283 283 282 282 281 280
193 196 190 174 164 168 202 210 210 210 210 207 210 223 241 246 248 247 246 251 256 258 255 259 261 264 269 277 282 282 269 291 294 294 291 288 286 284 280 266 273 281 284 284 279 271 265 264 266 270 275 280 283 284 286 288 289 290 290 291 292 293 293 293 293 293 293 293 293 292 292 291 291 290 289 288 288 287 286 285 285 284 283 283 282 282
200 204 190 175 174 189 223 220 219 218 223 221 223 232 244 250 256 258 256 257 259 259 257 258 261 266 273 280 285 288 281 273 276 283 292 289 287 284 276 251 268 282 286 288 287 281 271 268 267 270 274 279 282 285 287 288 289 289 290 291 291 292 292 293 293 293 293 293 293 293 292 292 291 291 290 289 288 288 287 286 286 285 285 284 283 283
202 211 204 191 190 199 222 229 232 232 231 230 231 232 233 239 248 255 256 255 257 259 260 264 269 274 276 279 280 279 267 245 243 256 277 282 285 287 284 275 284 287 287 291 294 294 286 279 274 273 276 280 282 285 286 287 288 289 289 290 291 291 292 292 293 293 293 293 293 293 293 292 292 291 290 290 289 288 288 287 286 286 285 285 284 283
199 208 209 201 199 203 218 231 236 237 233 230 229 229 230 234 240 246 250 252 257 262 268 278 282 283 280 280 280 276 260 224 189 185 229 267 278 285 295 304 299 294 289 291 294 295 292 287 280 276 275 278 281 283 285 286 287 288 289 290 291 292 293 293 294 294 294 294 294 294 293 292 292 291 290 290 289 288 288 287 286 286 285 285 284 283
201 209 210 212 218 226 237 243 243 240 232 225 224 229 234 241 246 250 252 252 257 266 280 288 289 287 287 288 285 279 265 187 150 158 189 259 277 283 290 297 295 293 292 294 295 295 293 290 285 279 273 275 278 280 282 284 286 288 290 291 292 293 294 295 295 295 295 294 294 293 292 292 291 290 290 289 289 288 288 287 286 286 285 285 285 284
250 253 251 262 268 272 278 280 277 271 261 232 213 212 222 232 241 246 248 248 261 282 294 292 289 288 289 288 284 278 271 235 162 168 182 250 280 287 289 288 286 289 293 296 298 298 295 292 289 284 276 273 274 277 279 282 286 288 291 293 294 295 296 296 296 295 295 294 293 293 292 291 291 290 290 289 289 288 288 288 287 287 287 287 286 285
295 296 296 297 295 295 295 302 307 312 317 315 297 262 230 216 238 256 258 259 277 294 294 291 290 291 293 288 280 275 270 261 207 187 180 236 274 284 289 291 291 293 295 297 297 296 294 291 289 286 280 272 269 271 275 281 286 290 293 294 295 296 296 296 295 295 294 294 293 293 292 292 291 291 291 290 290 290 289 289 289 289 289 289 288 285
303 304 306 304 301 297 297 303 312 320 324 321 316 312 314 323 299 283 274 275 282 285 279 281 286 290 293 290 284 280 277 270 243 199 164 210 266 278 286 293 295 297 300 299 297 293 288 284 282 280 276 269 262 263 271 281 288 292 294 295 295 295 295 295 294 294 294 293 293 293 293 292 292 292 292 291 291 291 291 291 291 291 290 289 287 284
317 314 310 304 301 300 306 317 321 321 319 316 314 313 316 319 293 274 267 260 257 262 265 271 276 282 288 290 291 289 283 270 252 177 123 147 265 276 288 295 299 303 307 304 300 293 280 270 266 265 266 268 266 267 274 286 290 291 291 292 292 292 293 293 294 294 294 294 293 294 294 294 293 293 293 293 292 292 292 292 292 291 290 287 284 280
330 324 316 307 305 310 325 334 330 323 319 314 309 306 307 297 255 240 238 217 220 239 254 264 270 276 284 292 295 293 283 267 243 155 115 146 276 283 296 299 302 307 314 310 307 301 290 274 260 256 269 286 291 292 289 288 286 284 284 287 288 289 291 292 293 294 294 294 294 294 294 294 294 294 294 293 293 292 292 292 292 291 288 284 281 280
286 286 284 283 287 297 310 307 308 310 312 308 302 298 294 270 227 212 205 190 195 212 232 253 264 271 278 287 290 289 283 271 236 195 147 241 280 290 303 301 300 301 307 307 307 305 303 297 288 281 295 301 299 296 291 287 284 280 279 282 283 286 289 292 294 294 294 295 295 295 295 295 295 294 294 293 293 292 292 292 291 290 287 284 282 280
242 245 245 243 245 248 258 268 287 300 302 298 293 286 278 258 228 203 190 184 185 193 209 239 256 265 267 268 270 274 279 282 263 246 258 280 287 290 297 295 295 295 292 278 280 288 297 300 303 305 305 300 296 293 289 287 284 282 282 284 284 288 291 294 295 295 295 295 295 295 294 294 294 294 294 293 293 292 292 292 292 291 288 285 282 280
228 229 228 226 225 226 233 255 287 294 290 285 281 276 272 260 240 218 197 188 186 191 203 229 251 263 267 265 265 267 273 280 287 291 297 292 288 288 290 289 290 290 289 274 264 265 275 288 297 302 300 296 294 292 292 290 288 286 285 287 289 290 293 295 294 293 293 293 293 293 294 294 294 293 293 293 293 292 292 292 292 291 289 286 284 283
221 221 220 220 225 239 269 298 299 291 283 277 272 268 264 259 250 235 216 207 204 204 208 223 243 260 270 270 270 269 271 271 282 291 297 288 283 285 287 285 286 287 289 282 275 270 270 279 288 295 297 295 293 291 292 292 290 289 285 286 288 291 293 294 293 292 291 291 292 291 292 292 291 291 292 292 292 292 293 293 292 291 290 288 287 286
211 214 214 214 225 253 284 293 289 282 276 270 266 263 260 257 251 242 231 228 223 221 220 223 233 246 259 267 272 274 274 273 279 286 288 279 278 282 284 281 282 285 287 285 283 282 281 282 286 290 295 296 295 292 289 288 289 289 287 286 286 288 290 291 292 291 292 291 290 289 289 289 289 289 290 292 292 293 293 293 293 292 291 289 288 286
210 217 220 226 244 266 279 280 279 276 274 268 263 259 254 250 246 242 238 236 236 236 237 237 237 239 243 253 261 268 273 275 276 277 275 270 271 275 279 277 279 282 283 284 283 283 284 286 288 289 291 294 296 296 293 292 292 293 293 291 290 289 288 288 288 288 290 290 290 290 290 290 290 290 290 292 293 294 294 294 293 293 291 289 287 285
213 225 229 240 254 262 270 272 272 269 266 264 260 254 247 243 242 240 241 238 240 243 248 251 251 250 248 249 252 257 266 270 270 268 265 262 263 266 270 274 275 275 275 279 282 284 285 288 290 291 289 289 292 297 302 304 302 299 295 295 294 292 289 287 285 284 286 288 289 291 292 292 292 291 291 293 294 295 294 293 292 291 290 288 286 284
217 230 229 220 226 243 261 267 265 260 252 248 247 245 240 238 237 239 244 245 244 246 251 255 258 258 255 256 257 257 261 264 264 263 261 257 256 259 264 269 271 269 266 271 276 281 284 288 291 293 292 289 289 293 298 303 304 302 298 296 293 291 289 286 285 284 285 288 290 291 292 292 292 292 292 293 294 293 292 290 289 289 289 288 286 283
225 241 245 241 238 241 252 258 256 251 242 237 235 234 234 238 242 244 247 249 249 248 248 251 255 259 257 258 260 261 263 262 262 260 258 254 250 250 256 263 267 267 265 266 269 273 277 280 284 289 293 294 294 295 296 298 300 300 301 299 294 288 283 285 286 287 288 289 291 292 292 292 292 292 292 292 292 292 291 290 289 289 289 288 287 284
250 259 260 256 248 238 237 244 245 243 237 238 239 242 243 253 260 261 258 255 255 253 251 250 254 258 258 259 261 262 263 263 262 261 258 251 243 241 246 255 262 266 267 266 265 266 269 273 277 281 284 289 294 297 299 298 298 300 303 301 299 295 294 294 293 291 289 288 289 291 292 292 292 291 291 291 290 290 290 290 290 289 288 288 288 288
264 267 262 257 247 239 236 241 241 238 231 234 243 255 257 259 268 273 276 271 266 263 263 260 261 263 262 258 258 258 259 260 260 258 255 249 243 240 242 248 255 262 266 267 266 265 265 270 274 278 282 287 291 293 293 294 296 298 299 296 295 295 298 296 293 291 290 289 288 289 291 293 293 293 292 291 289 287 286 287 288 288 287 284 283 283
268 267 259 252 244 240 239 241 239 233 222 210 213 225 232 234 247 264 278 281 278 275 274 278 282 283 282 273 263 257 255 255 254 253 253 250 246 242 242 247 252 257 263 267 268 267 264 268 274 280 286 291 293 293 291 291 291 292 291 291 293 295 296 292 289 288 291 291 290 291 292 293 294 293 292 290 288 286 285 284 284 284 285 283 279 276
261 260 255 249 244 239 238 240 237 228 210 206 217 226 226 221 233 256 271 274 275 277 279 282 285 288 288 284 277 268 261 257 255 254 254 251 247 245 244 247 250 255 260 267 271 271 270 271 276 281 286 289 288 287 288 290 291 290 287 288 293 297 298 297 297 297 293 292 292 293 293 292 291 290 289 288 287 287 286 285 283 282 281 281 279 276
249 251 249 243 237 232 229 229 225 221 215 223 235 243 242 237 246 260 270 272 275 278 282 281 280 279 279 280 279 275 272 270 265 260 257 255 250 247 248 249 250 252 254 262 271 277 282 280 279 279 282 284 284 283 284 287 288 289 287 288 288 287 286 292 299 301 298 294 293 292 291 291 290 290 289 288 288 288 287 285 283 281 278 277 275 274
244 246 243 235 225 218 221 226 226 224 224 234 242 248 252 248 251 258 265 272 277 279 277 277 278 279 278 282 286 287 284 280 273 266 262 261 259 259 258 257 257 256 254 256 263 273 282 285 286 286 285 281 279 278 280 283 286 287 287 287 286 283 280 286 291 295 295 295 294 292 292 292 293 293 292 291 289 288 286 285 283 281 279 276 273 272
240 240 237 228 220 221 231 232 232 231 234 244 248 250 249 245 246 251 260 267 272 275 270 268 272 279 285 292 296 296 292 287 281 275 270 267 265 264 264 264 263 262 261 260 261 264 269 277 283 287 289 284 279 275 274 278 282 285 286 288 288 286 285 286 288 290 291 292 292 293 295 296 296 295 293 292 291 288 286 284 282 281 280 278 275 272
233 233 231 225 223 226 232 236 238 240 246 250 251 248 245 240 242 249 258 257 262 268 272 270 271 276 282 289 292 293 293 292 292 290 286 281 275 272 271 269 265 263 262 263 263 264 265 268 273 278 283 283 281 279 275 275 277 280 284 288 289 289 288 288 288 289 289 290 292 295 300 301 299 296 293 293 291 289 286 283 280 277 277 276 274 272
231 231 229 225 224 227 231 232 232 237 245 250 253 252 247 244 249 256 259 251 254 265 278 279 280 280 282 284 285 287 289 291 293 295 295 293 290 286 282 278 273 269 264 263 264 265 265 264 263 263 267 271 275 278 279 278 276 277 280 284 287 287 287 288 289 291 292 292 293 296 300 300 298 297 296 295 292 289 286 284 280 277 274 273 272 271
226 227 227 223 223 224 225 221 222 228 239 247 253 254 248 251 261 267 267 258 254 259 272 279 283 285 286 287 286 286 286 288 291 294 297 299 300 299 295 290 285 280 273 268 266 267 268 264 258 252 250 254 261 269 276 277 277 276 276 279 283 286 288 291 293 296 297 296 295 296 296 294 293 293 294 293 290 289 288 286 283 279 274 272 270 269
222 222 222 220 220 221 220 216 218 225 235 244 251 253 247 244 250 258 262 257 253 255 263 275 283 288 290 289 288 288 288 290 293 297 300 303 304 304 301 298 296 293 290 285 284 284 284 278 265 253 244 244 248 257 270 276 279 280 280 280 284 288 292 294 296 298 299 298 298 297 296 292 290 287 286 286 286 287 288 286 284 281 278 275 273 272
220 219 217 217 218 219 216 213 216 223 232 243 250 254 251 246 249 255 260 259 260 264 270 276 282 285 286 286 286 287 289 294 298 300 303 305 305 303 301 300 300 301 302 303 304 304 302 299 291 277 256 250 250 254 265 277 286 290 290 289 290 292 293 294 296 298 300 299 298 296 294 291 288 285 282 282 284 286 288 287 286 285 283 282 279 278